Zurück zum Katalog

METEOR 2-6

AktivWetterPO
NORAD 11962·PAYLOAD·🇷🇺 Russia

Gestartet Sep 9, 1980 von Plesetsk Cosmodrome

Loading…

Nächste Überflüge (nächste 24 Stunden)

TLE

AktuellSource: Space-Track

Epoche: Sep 14, 2026, 06:19 UTC

1 11962U 80073A   26257.26369483  .00000209  00000-0  10846-3 0  9993
2 11962  81.2261   2.7708 0034729 245.4394 114.3156 14.11156868367290

Verfolge METEOR 2-6 in Echtzeit mit AllMySat

Download on the App Store